Time,TemperatureF,DewpointF,PressureIn,WindDirection,WindDirectionDegrees,WindSpeedMPH,WindSpeedGustMPH,Humidity,HourlyPrecipIn,Conditions,Clouds,dailyrainin,SoftwareType,DateUTC
2013-07-01 00:01:00,58.0,-99.9,29.85,ENE,67,2.0,7.0,0,-99.99,,,0.00,,2013-07-01 04:01:00,
2013-07-01 09:53:00,64.0,-99.9,29.94,West,270,4.0,9.0,0,-99.99,,,0.00,,2013-07-01 13:53:00,
2013-07-01 10:02:00,64.0,-99.9,29.94,West,270,4.0,9.0,0,-99.99,,,0.00,,2013-07-01 14:02:00,
2013-07-01 10:43:00,70.0,-99.9,29.94,West,270,6.0,10.0,0,-99.99,,,0.00,,2013-07-01 14:43:00,
2013-07-01 10:53:00,70.0,-99.9,29.94,West,270,6.0,10.0,0,-99.99,,,0.00,,2013-07-01 14:53:00,
2013-07-01 11:02:00,70.0,-99.9,29.94,West,270,6.0,10.0,0,-99.99,,,0.00,,2013-07-01 15:02:00,
2013-07-01 11:44:00,70.0,-99.9,29.95,West,270,10.0,15.0,0,-99.99,,,0.00,,2013-07-01 15:44:00,
2013-07-01 11:53:00,70.0,-99.9,29.95,West,270,10.0,15.0,0,-99.99,,,0.00,,2013-07-01 15:53:00,
2013-07-01 12:01:00,70.0,-99.9,29.95,West,270,10.0,15.0,0,-99.99,,,0.00,,2013-07-01 16:01:00,
2013-07-01 12:44:00,71.0,-99.9,29.97,West,270,8.0,13.0,0,-99.99,,,0.00,,2013-07-01 16:44:00,
2013-07-01 12:53:00,71.0,-99.9,29.97,West,270,8.0,13.0,0,-99.99,,,0.00,,2013-07-01 16:53:00,
2013-07-01 13:02:00,71.0,-99.9,29.97,West,270,8.0,13.0,0,-99.99,,,0.00,,2013-07-01 17:02:00,
2013-07-01 13:43:00,72.0,-99.9,29.98,NE,45,9.0,14.0,0,-99.99,,,0.00,,2013-07-01 17:43:00,
2013-07-01 13:53:00,72.0,-99.9,29.98,NE,45,9.0,14.0,0,-99.99,,,0.00,,2013-07-01 17:53:00,
2013-07-01 14:02:00,72.0,-99.9,29.98,NE,45,9.0,14.0,0,-99.99,,,0.00,,2013-07-01 18:02:00,
2013-07-01 14:44:00,72.0,-99.9,29.99,NE,45,7.0,15.0,0,-99.99,,,0.00,,2013-07-01 18:44:00,
2013-07-01 14:53:00,72.0,-99.9,29.99,NE,45,7.0,15.0,0,-99.99,,,0.00,,2013-07-01 18:53:00,
2013-07-01 15:02:00,72.0,-99.9,29.99,NE,45,7.0,15.0,0,-99.99,,,0.00,,2013-07-01 19:02:00,
2013-07-01 15:44:00,71.0,-99.9,30.00,NNW,337,6.0,16.0,0,-99.99,,,0.00,,2013-07-01 19:44:00,
2013-07-01 15:53:00,71.0,-99.9,30.00,NNW,337,6.0,16.0,0,-99.99,,,0.00,,2013-07-01 19:53:00,
2013-07-01 16:02:00,71.0,-99.9,30.00,NNW,337,6.0,16.0,0,-99.99,,,0.00,,2013-07-01 20:02:00,
2013-07-01 16:43:00,70.0,-99.9,30.00,NE,45,4.0,16.0,0,-99.99,,,0.00,,2013-07-01 20:43:00,
2013-07-01 16:52:00,70.0,-99.9,30.00,NE,45,4.0,16.0,0,-99.99,,,0.00,,2013-07-01 20:52:00,
2013-07-01 17:02:00,70.0,-99.9,30.00,NE,45,4.0,16.0,0,-99.99,,,0.00,,2013-07-01 21:02:00,
2013-07-01 17:44:00,71.0,-99.9,30.01,NE,45,7.0,14.0,0,-99.99,,,0.00,,2013-07-01 21:44:00,
2013-07-01 17:53:00,71.0,-99.9,30.01,NE,45,7.0,14.0,0,-99.99,,,0.00,,2013-07-01 21:53:00,
2013-07-01 18:01:00,71.0,-99.9,30.01,NE,45,7.0,14.0,0,-99.99,,,0.00,,2013-07-01 22:01:00,
2013-07-01 18:43:00,71.0,-99.9,30.03,NE,45,5.0,13.0,0,-99.99,,,0.00,,2013-07-01 22:43:00,
2013-07-01 18:53:00,71.0,-99.9,30.03,NE,45,5.0,13.0,0,-99.99,,,0.00,,2013-07-01 22:53:00,
2013-07-01 19:02:00,71.0,-99.9,30.03,NE,45,5.0,13.0,0,-99.99,,,0.00,,2013-07-01 23:02:00,
2013-07-01 19:44:00,67.0,-99.9,30.06,North,360,3.0,10.0,0,-99.99,,,0.00,,2013-07-01 23:44:00,
2013-07-01 19:53:00,67.0,-99.9,30.06,North,360,3.0,10.0,0,-99.99,,,0.00,,2013-07-01 23:53:00,
2013-07-01 20:01:00,67.0,-99.9,30.06,North,360,3.0,10.0,0,-99.99,,,0.00,,2013-07-02 00:01:00,
2013-07-01 20:43:00,63.0,-99.9,30.08,NNW,337,0.0,8.0,0,-99.99,,,0.00,,2013-07-02 00:43:00,
2013-07-01 20:53:00,63.0,-99.9,30.08,NNW,337,0.0,8.0,0,-99.99,,,0.00,,2013-07-02 00:53:00,
2013-07-01 21:01:00,63.0,-99.9,30.08,NNW,337,0.0,8.0,0,-99.99,,,0.00,,2013-07-02 01:01:00,
2013-07-01 21:43:00,59.0,-99.9,30.10,ENE,67,0.0,9.0,0,-99.99,,,0.00,,2013-07-02 01:43:00,
2013-07-01 21:53:00,59.0,-99.9,30.10,ENE,67,0.0,9.0,0,-99.99,,,0.00,,2013-07-02 01:53:00,
2013-07-01 22:02:00,59.0,-99.9,30.10,ENE,67,0.0,9.0,0,-99.99,,,0.00,,2013-07-02 02:02:00,
2013-07-01 22:43:00,59.0,-99.9,30.12,NNE,22,2.0,8.0,0,-99.99,,,0.00,,2013-07-02 02:43:00,
2013-07-01 22:53:00,59.0,-99.9,30.12,NNE,22,2.0,8.0,0,-99.99,,,0.00,,2013-07-02 02:53:00,
2013-07-01 23:02:00,59.0,-99.9,30.12,NNE,22,2.0,8.0,0,-99.99,,,0.00,,2013-07-02 03:02:00,
2013-07-01 23:43:00,56.0,-99.9,30.15,North,360,0.0,9.0,0,-99.99,,,0.00,,2013-07-02 03:43:00,
2013-07-01 23:53:00,56.0,-99.9,30.15,North,360,0.0,9.0,0,-99.99,,,0.00,,2013-07-02 03:53:00,